Temp
-13 -13 -13 -13 -12 -12 -12 -12 -12 -12 -13 -13 -13 -13 -13 -14 -14 -15 -14 -13 -13 -14 -13 -13 -13 -13 -12 -12 -12 -12 -12 -12 -12 -11 -11 -11 -12 -12 -11 -11 -12 -12 -12
-14 -14 -14 -13 -13 -12 -12 -12 -12 -12 -12 -13 -14 -13 -13 -13 -14 -15 -15 -14 -14 -14 -14 -13 -13 -13 -13 -12 -12 -13 -12 -13 -12 -12 -12 -12 -11 -12 -12 -12 -12 -11 -11
-14 -14 -14 -14 -13 -13 -14 -15 -16 -17 -16 -16 -15 -16 -15 -14 -14 -14 -15 -15 -15 -15 -15 -14 -13 -13 -13 -13 -13 -13 -13 -13 -13 -12 -12 -12 -12 -11 -12 -12 -12 -12 -12
-14 -15 -15 -15 -15 -17 -18 -17 -17 -17 -18 -18 -18 -18 -17 -17 -15 -15 -15 -15 -14 -15 -15 -14 -14 -14 -13 -13 -13 -13 -13 -13 -13 -13 -13 -12 -12 -12 -12 -12 -12 -12 -12
-15 -16 -16 -18 -18 -17 -17 -17 -17 -17 -17 -18 -19 -18 -19 -18 -17 -16 -15 -13 -14 -15 -15 -14 -14 -14 -14 -14 -14 -13 -13 -13 -14 -13 -13 -13 -13 -12 -12 -12 -12 -12 -12
-16 -17 -19 -18 -18 -17 -18 -18 -18 -17 -17 -17 -18 -18 -19 -19 -17 -17 -16 -13 -13 -15 -15 -15 -14 -14 -14 -14 -14 -14 -14 -14 -13 -14 -13 -13 -13 -13 -12 -12 -12 -12 -12
-17 -18 -18 -18 -18 -18 -18 -18 -19 -19 -19 -19 -19 -19 -18 -19 -18 -17 -16 -15 -12 -15 -14 -15 -14 -15 -15 -15 -14 -14 -14 -14 -14 -14 -14 -14 -14 -14 -13 -13 -12 -12 -12
-18 -19 -19 -19 -18 -18 -18 -18 -19 -19 -20 -20 -20 -19 -19 -19 -18 -17 -17 -16 -14 -14 -15 -15 -15 -15 -16 -16 -15 -15 -14 -14 -14 -14 -14 -14 -14 -14 -14 -14 -13 -13 -13
-20 -19 -20 -18 -17 -19 -19 -19 -20 -21 -21 -21 -21 -20 -20 -19 -18 -17 -16 -15 -14 -14 -15 -15 -15 -16 -16 -16 -16 -15 -15 -14 -14 -14 -14 -14 -14 -14 -14 -14 -14 -13 -13
-20 -20 -19 -18 -18 -18 -19 -19 -20 -21 -21 -21 -21 -20 -20 -20 -18 -17 -17 -16 -15 -14 -15 -14 -15 -16 -15 -15 -15 -16 -16 -15 -14 -14 -14 -14 -14 -14 -14 -14 -14 -14 -13
-20 -20 -19 -18 -19 -18 -19 -20 -20 -20 -21 -21 -21 -20 -19 -18 -18 -18 -17 -15 -14 -15 -14 -15 -15 -15 -15 -15 -15 -15 -16 -15 -15 -14 -14 -14 -14 -14 -14 -14 -14 -14 -14
-20 -20 -19 -18 -19 -18 -19 -19 -20 -20 -20 -20 -20 -19 -18 -19 -17 -16 -17 -15 -15 -16 -16 -16 -16 -16 -16 -15 -15 -15 -15 -15 -14 -14 -14 -14 -14 -14 -14 -14 -14 -14 -14
-21 -20 -20 -19 -19 -19 -18 -19 -19 -19 -19 -19 -19 -19 -19 -18 -17 -17 -16 -16 -16 -15 -15 -16 -16 -15 -16 -16 -16 -16 -15 -15 -14 -15 -14 -14 -14 -14 -14 -14 -14 -15 -14
-20 -20 -20 -19 -19 -19 -18 -18 -18 -19 -18 -18 -18 -18 -18 -18 -18 -17 -17 -17 -16 -16 -16 -16 -16 -15 -16 -16 -16 -16 -16 -15 -15 -14 -15 -14 -14 -14 -14 -14 -14 -14 -14
-21 -21 -20 -20 -19 -19 -19 -18 -18 -18 -18 -18 -18 -18 -18 -18 -18 -18 -17 -17 -17 -17 -16 -15 -16 -16 -16 -16 -16 -16 -15 -15 -15 -15 -14 -14 -14 -14 -14 -14 -14 -14 -14
-21 -21 -20 -20 -20 -20 -19 -18 -18 -18 -18 -18 -17 -17 -17 -17 -17 -17 -17 -17 -17 -17 -17 -17 -16 -15 -15 -15 -15 -15 -15 -15 -14 -14 -15 -14 -14 -14 -14 -14 -14 -14 -14
-21 -21 -20 -20 -20 -20 -19 -19 -18 -18 -18 -17 -17 -17 -17 -17 -16 -17 -16 -16 -16 -16 -16 -16 -16 -15 -15 -14 -14 -15 -14 -15 -14 -14 -14 -14 -14 -14 -14 -14 -15 -15 -15
-21 -21 -20 -20 -20 -20 -20 -19 -19 -17 -18 -18 -18 -18 -18 -17 -17 -17 -17 -16 -16 -16 -16 -15 -15 -14 -14 -14 -14 -14 -14 -14 -14 -14 -14 -14 -14 -14 -14 -14 -15 -16 -15
-21 -21 -20 -21 -20 -20 -20 -20 -19 -18 -18 -18 -17 -17 -17 -17 -17 -17 -17 -16 -16 -16 -16 -15 -14 -14 -14 -14 -14 -14 -14 -14 -14 -14 -14 -14 -14 -14 -14 -13 -14 -15 -15
-22 -21 -21 -20 -20 -20 -20 -19 -20 -19 -18 -18 -17 -17 -17 -16 -16 -17 -16 -16 -15 -15 -15 -15 -15 -15 -14 -14 -14 -14 -14 -14 -14 -14 -14 -14 -14 -15 -15 -15 -15 -15 -15
-22 -21 -22 -21 -20 -20 -19 -19 -19 -20 -20 -19 -18 -18 -17 -17 -17 -17 -17 -16 -17 -16 -16 -15 -15 -15 -15 -14 -15 -14 -14 -15 -14 -15 -15 -15 -16 -15 -15 -15 -15 -15 -15
-23 -22 -22 -22 -21 -20 -20 -19 -19 -19 -20 -20 -19 -18 -18 -18 -18 -18 -18 -18 -18 -17 -17 -17 -16 -16 -16 -17 -16 -16 -16 -16 -16 -16 -16 -16 -15 -15 -15 -15 -15 -15 -15
-24 -24 -23 -22 -22 -21 -20 -20 -19 -19 -20 -20 -20 -19 -19 -19 -18 -18 -18 -18 -17 -17 -17 -17 -16 -16 -16 -16 -16 -16 -15 -15 -15 -15 -15 -16 -16 -15 -15 -15 -15 -15 -15
-25 -25 -24 -23 -23 -22 -22 -21 -20 -20 -20 -20 -20 -20 -20 -19 -19 -18 -18 -18 -18 -17 -17 -17 -16 -16 -16 -16 -16 -16 -15 -15 -15 -15 -15 -15 -15 -16 -16 -15 -15 -16 -16
-25 -25 -25 -24 -23 -23 -22 -22 -22 -21 -21 -21 -20 -20 -20 -19 -19 -19 -18 -18 -18 -18 -18 -17 -17 -17 -17 -16 -16 -16 -16 -16 -16 -15 -16 -16 -16 -16 -16 -16 -16 -16 -17
-26 -26 -25 -24 -24 -24 -23 -22 -22 -22 -21 -21 -21 -21 -20 -20 -20 -20 -19 -19 -18 -18 -18 -18 -17 -17 -17 -17 -17 -17 -17 -16 -16 -16 -16 -16 -16 -16 -16 -16 -16 -17 -17
Height
5712 5708 5705 5703 5701 5701 5699 5698 5693 5696 5693 5694 5699 5704 5712 5718 5724 5728 5736 5744 5749 5754 5760 5763 5767 5769 5771 5772 5773 5774 5776 5777 5778 5779 5779 5780 5781 5781 5781 5781 5781 5781 5781
5700 5696 5690 5685 5681 5677 5671 5670 5664 5665 5665 5664 5665 5675 5685 5696 5706 5714 5722 5730 5738 5744 5750 5753 5758 5762 5763 5765 5767 5769 5770 5773 5773 5774 5776 5776 5778 5777 5778 5778 5778 5777 5777
5686 5679 5671 5664 5658 5650 5642 5637 5632 5630 5627 5627 5634 5638 5651 5665 5680 5692 5703 5712 5724 5732 5738 5743 5748 5754 5755 5758 5760 5763 5765 5767 5768 5770 5771 5772 5772 5773 5774 5774 5774 5774 5773
5673 5663 5655 5645 5637 5629 5624 5619 5615 5611 5609 5606 5607 5614 5622 5630 5651 5672 5688 5697 5710 5719 5726 5733 5738 5745 5747 5750 5753 5755 5758 5761 5763 5764 5766 5766 5768 5768 5770 5770 5770 5770 5769
5660 5650 5638 5626 5619 5612 5607 5598 5593 5589 5590 5587 5587 5593 5601 5615 5633 5647 5667 5680 5692 5704 5714 5721 5728 5735 5738 5741 5745 5747 5751 5754 5756 5758 5759 5761 5762 5763 5765 5765 5766 5766 5765
5645 5633 5624 5614 5605 5595 5585 5580 5573 5568 5563 5562 5566 5573 5584 5601 5616 5634 5651 5668 5671 5689 5700 5709 5717 5724 5729 5733 5737 5739 5743 5747 5749 5752 5753 5755 5756 5757 5759 5760 5761 5761 5761
5631 5623 5614 5604 5595 5583 5572 5564 5551 5545 5536 5535 5539 5551 5566 5582 5602 5623 5637 5652 5659 5672 5686 5701 5706 5714 5721 5724 5729 5731 5734 5738 5742 5745 5747 5748 5751 5751 5753 5754 5755 5756 5757
5622 5615 5605 5594 5582 5568 5559 5548 5535 5526 5516 5512 5518 5531 5551 5565 5584 5606 5624 5637 5637 5650 5674 5690 5695 5703 5710 5715 5719 5723 5725 5730 5734 5737 5740 5741 5743 5745 5746 5747 5748 5749 5750
5612 5605 5599 5588 5574 5564 5552 5540 5527 5515 5505 5499 5503 5517 5535 5557 5574 5596 5616 5633 5638 5647 5662 5678 5683 5692 5700 5705 5708 5713 5716 5720 5725 5729 5731 5733 5735 5737 5739 5740 5741 5742 5743
5606 5600 5592 5584 5570 5559 5549 5540 5527 5518 5510 5504 5508 5516 5536 5555 5575 5596 5610 5623 5636 5650 5654 5664 5671 5681 5689 5694 5697 5702 5706 5710 5715 5721 5723 5726 5728 5729 5731 5732 5734 5735 5736
5602 5596 5587 5579 5567 5557 5551 5543 5534 5527 5522 5520 5524 5535 5546 5560 5577 5591 5599 5580 5611 5632 5632 5649 5659 5671 5678 5684 5688 5692 5696 5700 5703 5711 5715 5717 5718 5721 5722 5724 5726 5728 5728
5597 5591 5583 5575 5565 5558 5554 5549 5542 5539 5537 5537 5542 5552 5562 5570 5576 5588 5599 5582 5614 5615 5626 5640 5652 5662 5668 5673 5679 5682 5685 5689 5697 5702 5703 5707 5709 5711 5713 5716 5718 5719 5720
5593 5588 5581 5573 5564 5556 5554 5552 5547 5547 5548 5549 5553 5558 5566 5574 5578 5582 5589 5600 5609 5616 5624 5634 5644 5651 5657 5664 5669 5674 5678 5682 5687 5692 5695 5697 5700 5702 5704 5706 5708 5710 5711
5589 5584 5578 5572 5563 5555 5553 5553 5550 5550 5553 5556 5560 5563 5568 5572 5577 5585 5589 5591 5599 5609 5618 5626 5634 5642 5646 5652 5658 5663 5667 5673 5676 5680 5683 5684 5688 5691 5693 5695 5698 5700 5700
5585 5582 5577 5571 5564 5556 5552 5553 5553 5552 5554 5557 5560 5564 5568 5571 5576 5581 5584 5590 5596 5604 5609 5615 5621 5630 5635 5641 5646 5653 5656 5660 5663 5667 5669 5672 5674 5678 5680 5683 5687 5688 5690
5580 5578 5574 5569 5564 5556 5551 5545 5550 5552 5554 5557 5559 5562 5566 5570 5574 5578 5582 5586 5591 5594 5600 5607 5613 5619 5624 5631 5637 5640 5644 5647 5649 5653 5655 5657 5662 5665 5669 5672 5675 5677 5679
5574 5573 5571 5567 5564 5557 5551 5547 5546 5546 5550 5553 5556 5559 5562 5565 5569 5573 5576 5581 5584 5588 5590 5596 5605 5612 5617 5622 5626 5629 5631 5634 5635 5638 5643 5648 5652 5653 5654 5659 5662 5665 5667
5571 5567 5565 5563 5561 5556 5550 5546 5544 5544 5544 5545 5548 5551 5553 5555 5559 5565 5568 5568 5574 5578 5581 5585 5598 5601 5607 5611 5616 5618 5620 5621 5624 5626 5629 5634 5638 5639 5641 5645 5649 5651 5654
5566 5562 5560 5556 5558 5555 5550 5545 5542 5542 5542 5541 5543 5545 5543 5544 5550 5556 5558 5559 5565 5568 5571 5576 5582 5590 5597 5603 5605 5606 5609 5613 5613 5613 5618 5622 5627 5629 5631 5635 5636 5641 5644
5559 5556 5555 5553 5550 5550 5549 5546 5542 5540 5540 5541 5542 5539 5539 5543 5547 5548 5551 5554 5559 5562 5566 5571 5576 5583 5588 5592 5598 5598 5599 5603 5606 5606 5609 5612 5616 5618 5622 5625 5628 5630 5633
5553 5550 5547 5548 5546 5546 5546 5545 5543 5539 5539 5538 5539 5537 5538 5540 5543 5546 5547 5550 5553 5556 5559 5563 5568 5571 5577 5582 5583 5588 5589 5590 5596 5598 5601 5605 5608 5611 5614 5616 5619 5621 5623
5544 5543 5541 5541 5541 5539 5540 5541 5541 5539 5538 5537 5537 5538 5538 5539 5541 5543 5545 5548 5548 5550 5556 5559 5563 5567 5568 5573 5578 5580 5582 5585 5587 5591 5595 5599 5602 5603 5605 5607 5608 5610 5611
5536 5534 5533 5532 5532 5533 5532 5533 5534 5535 5535 5535 5534 5535 5535 5537 5537 5539 5541 5543 5546 5549 5552 5555 5558 5561 5564 5568 5570 5572 5575 5578 5580 5582 5586 5589 5592 5593 5595 5596 5597 5598 5600
5526 5526 5525 5524 5523 5524 5525 5526 5527 5529 5529 5529 5529 5530 5532 5533 5534 5536 5537 5537 5541 5544 5546 5550 5553 5555 5557 5559 5563 5565 5567 5570 5572 5574 5577 5579 5581 5583 5584 5585 5587 5588 5589
5515 5517 5517 5517 5517 5516 5516 5517 5518 5521 5523 5524 5525 5526 5526 5527 5529 5530 5533 5534 5535 5537 5540 5544 5547 5549 5552 5554 5556 5559 5561 5563 5565 5567 5568 5569 5571 5573 5574 5576 5576 5577 5579
5506 5508 5509 5510 5511 5511 5510 5509 5510 5512 5515 5517 5519 5520 5521 5522 5523 5525 5526 5528 5530 5531 5533 5535 5538 5541 5543 5545 5548 5551 5553 5555 5557 5558 5560 5561 5562 5563 5564 5565 5565 5566 5566
Wind_Speed
54 57 60 62 66 68 70 74 79 79 83 81 80 78 73 65 67 69 64 55 53 47 41 43 45 40 37 33 31 25 25 23 20 19 18 16 15 14 15 15 17 18 19
55 59 63 69 74 78 82 85 91 93 95 94 80 84 83 77 67 71 68 62 57 52 41 43 45 44 39 38 33 28 27 23 22 21 20 19 18 16 14 15 15 15 16
59 63 71 77 83 87 84 67 66 60 68 71 75 87 85 81 79 71 73 67 61 56 47 41 41 44 43 41 35 32 29 26 23 22 21 22 21 19 17 17 15 15 16
61 69 74 77 73 54 50 55 58 61 56 56 53 85 94 92 83 74 74 73 64 59 51 49 42 42 46 41 37 35 32 29 24 23 22 24 23 22 20 19 18 16 16
65 68 63 56 50 50 55 54 54 56 55 58 59 61 86 89 87 83 76 81 68 61 56 50 43 40 45 42 39 36 33 32 29 24 24 23 23 24 23 21 19 20 17
63 53 47 52 52 62 55 48 58 60 62 63 61 65 68 76 88 84 79 74 70 63 64 50 43 42 45 44 38 37 35 34 33 28 25 23 24 26 26 24 20 22 20
59 41 43 51 52 61 52 56 53 51 53 56 60 67 64 65 85 82 79 76 69 70 62 54 43 45 43 42 38 36 37 37 34 31 29 27 25 26 27 28 27 23 23
54 34 43 51 60 47 46 47 45 38 40 43 51 58 64 61 76 81 81 78 80 72 59 51 44 45 42 42 41 38 39 38 37 33 31 31 28 27 27 28 30 28 27
42 39 44 49 61 43 42 40 33 27 23 21 41 45 57 62 70 76 76 73 74 61 61 51 46 46 47 45 44 42 40 39 37 37 34 34 33 30 28 29 29 31 30
37 38 42 46 53 33 33 29 20 16 7 6 22 35 43 53 63 69 72 67 62 61 53 50 54 52 53 53 51 45 44 43 42 38 39 36 35 34 31 31 30 32 32
36 37 36 41 41 20 22 17 11 4 2 15 25 33 43 50 56 59 65 55 48 62 52 63 52 54 53 54 55 52 49 48 49 41 40 40 38 38 35 33 33 32 34
33 32 36 38 33 17 16 4 3 6 13 18 24 31 36 37 46 49 49 42 36 29 39 44 49 49 54 57 57 56 53 54 48 45 48 44 43 40 38 37 36 36 37
31 29 30 31 30 12 14 9 7 9 13 20 24 28 34 31 35 39 43 42 41 44 46 44 54 49 52 57 49 56 59 55 51 50 52 49 46 44 42 40 39 39 41
32 29 30 29 30 18 16 19 12 14 15 18 21 27 31 32 29 32 35 34 38 43 48 50 53 55 57 57 54 55 55 50 52 53 58 52 48 48 46 43 42 42 43
34 28 22 23 28 24 14 23 20 19 20 22 24 27 28 31 32 35 36 39 41 43 46 50 53 57 61 61 63 57 55 51 58 60 61 60 51 51 46 45 44 44 45
34 27 23 24 25 20 12 17 26 25 23 24 28 31 31 32 34 36 37 40 42 48 50 56 53 57 60 62 55 57 56 56 60 57 53 58 52 46 46 47 46 46 47
34 33 24 22 22 22 17 10 23 37 32 31 31 33 37 41 42 43 40 46 51 54 42 59 51 51 51 51 52 54 53 51 52 50 49 46 51 56 54 52 49 49 48
32 34 27 24 17 22 22 14 5 22 43 35 32 35 39 50 48 47 42 44 46 49 57 45 49 47 49 51 49 44 44 46 50 54 49 49 49 52 59 54 54 52 51
32 34 30 28 20 14 19 17 10 7 19 22 25 26 15 29 40 30 30 33 36 41 47 38 44 49 53 47 46 48 57 60 44 46 48 34 47 41 48 57 59 47 43
33 35 29 32 26 16 13 18 17 9 10 19 28 22 19 26 28 17 19 19 27 40 40 35 40 50 57 53 53 41 25 33 30 36 35 37 30 29 31 34 38 39 41
35 33 33 28 29 23 18 15 16 14 10 12 15 12 13 17 18 19 21 23 17 15 18 24 25 31 36 39 29 30 22 31 32 18 27 27 27 32 37 37 38 38 40
35 35 34 32 26 27 24 20 18 17 13 13 14 21 18 18 18 17 16 19 19 19 20 21 21 24 24 26 30 30 30 31 32 30 33 31 33 38 40 39 38 39 41
35 35 36 34 28 26 27 25 23 22 19 14 17 18 15 15 15 16 22 20 17 20 22 25 28 29 29 30 31 29 33 36 38 34 31 32 37 37 38 38 39 38 38
37 34 35 30 27 27 26 27 26 26 23 19 16 17 21 18 18 19 19 19 22 22 22 24 26 27 27 29 32 33 34 37 39 36 35 38 39 41 38 36 36 34 37
37 33 33 28 25 23 24 26 25 25 23 22 20 20 20 23 21 19 20 21 21 22 24 26 27 28 29 30 30 31 32 34 36 36 36 35 35 35 37 38 37 39 42
33 31 31 28 24 21 21 23 24 27 25 23 22 23 23 21 22 24 24 24 23 23 24 25 26 26 27 27 28 30 32 32 31 31 32 33 33 33 34 35 35 37 41
Wind_Direction
287 288 288 287 282 278 274 274 271 267 275 271 265 260 256 245 243 245 249 251 255 257 256 256 256 249 248 246 245 246 249 250 247 245 248 252 253 254 259 263 262 264 268
292 295 296 292 289 285 284 280 280 274 269 268 262 258 254 248 238 238 242 247 250 253 255 250 250 248 244 245 246 246 247 247 247 245 246 250 254 257 263 263 268 271 273
303 305 305 302 297 295 292 288 285 270 270 262 250 232 229 234 237 232 232 237 241 247 246 246 250 248 244 244 245 245 249 247 246 250 248 252 253 257 261 266 270 279 285
310 310 306 302 299 290 282 281 279 267 259 266 259 235 228 225 221 224 226 230 234 238 236 243 247 257 245 240 244 242 246 248 249 247 249 250 255 260 264 266 274 281 289
310 310 305 294 295 293 291 285 276 264 256 257 256 244 235 229 221 214 217 226 226 232 230 241 242 250 243 239 241 244 245 247 248 247 250 249 254 258 261 266 269 275 279
312 311 305 303 303 305 295 291 287 279 271 261 252 238 237 235 224 215 214 222 216 228 230 233 237 241 241 240 240 243 246 246 247 248 248 253 253 255 259 262 266 273 275
313 301 304 303 303 313 297 298 294 286 271 257 246 233 229 229 224 216 211 215 219 222 218 230 232 240 239 242 240 241 246 246 244 247 249 249 251 256 257 261 264 271 278
310 298 311 313 316 316 305 309 301 293 284 260 240 229 222 221 215 214 213 214 220 208 209 221 227 230 232 240 242 238 243 245 244 245 248 253 251 253 256 260 263 264 271
300 291 307 318 319 312 319 316 312 307 293 262 229 217 211 216 210 212 212 217 226 218 209 217 222 225 230 236 242 243 243 246 245 243 245 251 253 252 253 257 262 264 267
298 298 312 316 319 314 323 321 328 310 303 177 189 182 188 200 203 208 213 210 223 228 207 221 216 220 228 233 238 243 247 248 250 249 248 250 253 256 254 255 258 264 265
299 312 320 325 321 308 324 322 348 353 126 154 160 171 178 187 200 212 220 219 210 211 221 213 214 224 232 235 241 242 246 248 249 252 253 247 251 253 254 256 259 264 266
311 322 325 331 326 297 312 323 98 128 140 145 156 170 181 195 204 212 217 225 228 220 224 211 219 233 233 241 243 242 243 251 255 254 254 248 247 251 253 256 258 261 265
311 325 328 328 339 287 270 256 167 180 174 172 173 184 192 199 208 216 215 220 218 218 220 221 226 232 237 241 249 251 249 251 256 260 259 253 246 248 251 254 257 259 261
303 319 328 334 346 350 239 255 201 196 203 201 192 197 203 218 206 213 222 225 223 226 226 226 228 231 239 244 249 254 255 256 258 260 262 257 247 247 248 251 253 255 258
297 311 325 339 341 353 235 240 234 214 210 212 211 212 217 220 221 223 220 219 224 227 229 230 229 230 238 243 247 252 256 256 255 254 258 262 254 247 247 250 251 253 256
298 301 314 331 347 354 353 212 235 225 219 226 220 219 222 230 229 228 232 237 232 231 233 235 235 232 236 241 246 248 253 257 258 265 269 267 251 252 246 248 249 252 255
299 299 296 316 334 360 359 1 220 230 225 228 232 234 235 231 235 238 237 241 239 238 232 234 240 239 240 240 245 249 255 262 262 264 257 256 256 243 243 247 248 249 254
289 299 288 304 325 331 342 354 288 231 245 244 233 235 243 235 234 237 244 235 237 236 237 228 228 235 237 238 245 255 257 264 268 262 259 243 246 243 250 241 242 243 247
276 291 283 287 299 317 336 344 350 295 215 216 205 195 182 224 218 239 228 225 236 237 232 228 226 235 239 245 253 256 268 262 254 254 251 227 234 254 251 255 253 249 253
269 276 287 276 284 289 312 321 326 330 254 242 220 196 203 200 202 199 210 196 210 221 217 222 228 233 241 246 252 237 227 226 240 215 224 239 251 260 261 251 249 250 256
261 265 279 276 271 273 266 286 301 311 305 260 248 211 196 192 199 209 195 202 218 215 218 203 212 210 208 214 228 220 242 248 235 231 232 254 258 257 263 256 253 259 262
264 264 266 275 270 264 254 249 261 273 283 272 253 230 222 225 229 219 216 216 210 218 223 211 211 231 222 228 230 236 240 252 254 250 257 256 257 256 254 254 258 260 263
261 265 266 271 268 262 254 250 246 260 269 271 243 235 214 218 225 229 224 217 221 222 221 221 222 224 226 220 236 227 229 237 250 243 250 253 250 257 259 263 264 263 262
260 266 263 267 274 267 262 255 249 250 257 263 260 238 227 223 229 228 230 226 226 231 232 229 225 227 230 231 234 232 232 239 247 246 251 256 255 257 260 261 261 261 264
261 261 263 260 268 273 267 257 253 253 254 256 252 251 243 232 230 232 233 230 228 230 235 237 235 233 231 232 235 238 240 241 243 246 250 256 257 258 260 261 263 260 263
261 258 262 257 254 268 273 260 254 255 256 259 258 252 243 240 240 236 234 238 236 235 236 238 241 240 239 238 239 241 242 244 247 250 252 253 254 256 257 259 260 261 264